Location: Newark
(13.8117°N, 3.6025°W)
Time: 15:41:35
(UTC+00:00)

Courier 1B - Pass Details

Date: 24 August 2019
Orbit: 962 x 1209 km, 28.3° (Epoch: 23 October)

Event Time Altitude Azimuth Distance (km) Brightness Sun altitude
Rises 19:14:41 0° 298° (WNW) 3,745 12.4 -11.1°
Reaches altitude 10° 19:18:05 10° 313° (NW) 2,756 10.9 -11.9°
Maximum altitude 19:23:05 22° 2° (N) 1,980 9.3 -13.1°
Drops below altitude 10° 19:27:59 10° 52° (NE) 2,689 9.5 -14.2°
Enters shadow 19:29:06 - 58° (ENE) 2,989 9.7 -14.5°
